Location: Antoign�
(47.0844°N, 0.1131°W)
Time: 22:54:00
(UTC+00:00)

Cosmos 1821 Rocket - Pass Details

Date: 03 March 2021
Orbit: 945 x 1004 km, 82.9° (Epoch: 20 April)

Event Time Altitude Azimuth Distance (km) Brightness Sun altitude
Exits shadow 20:41:55 54° 26° (NNE) 1,172 4.3 -29.6°
Drops below altitude 10° 20:46:37 10° 12° (NNE) 2,705 6.4 -30.3°
Sets 20:49:06 0° 11° (N) 3,648 7.2 -30.7°
